FW3241 Weather Reports


time (UTC)temp
F
wind
direction
speed
knots
gust
knots
rain 1hr
in
rain 24hr
in
rain mn
in
humidity
%
barometer
mb
20260506073025 57 215 0.9 4.3 0.00 0.00 0.00 55 1012.8
20260506071523 57 182 0.9 7.0 0.00 0.00 0.00 53 1013.2
20260506070121 57 200 1.7 7.8 0.00 0.00 0.00 51 1013.3
20260506061540 57 180 0.9 8.7 0.00 0.00 0.00 49 1013.9
20260506044519 58 247 1.7 7.8 0.00 0.00 0.00 49 1013.7
20260506043019 58 165 2.6 7.8 0.00 0.00 0.00 50 1014.4
20260506041508 58 135 0.9 5.2 0.00 0.00 0.00 51 1014.2
20260506040005 58 154 2.6 7.8 0.00 0.00 0.00 51 1014.1
20260506034505 58 184 1.7 3.5 0.00 0.00 0.00 51 1013.9
20260506033005 58 156 1.7 10.4 0.00 0.00 0.00 51 1014.0
20260506031504 57 196 1.7 4.3 0.00 0.00 0.00 50 1014.1
20260506024503 58 192 2.6 8.7 0.00 0.00 0.00 50 1014.0
20260506023103 57 144 0.9 6.1 0.00 0.00 0.00 48 1014.3
20260506021606 57 195 0.9 4.3 0.00 0.00 0.00 47 1014.2
20260506020059 58 184 0.0 7.0 0.00 0.00 0.00 46 1013.9
20260506014559 58 149 0.9 3.5 0.00 0.00 0.00 45 1013.9
20260506013106 58 229 0.9 11.3 0.00 0.00 0.00 44 1014.0
20260506011606 58 188 0.0 5.2 0.00 0.00 0.00 44 1014.1
20260506010057 58 182 0.9 2.6 0.00 0.00 0.00 44 1014.1
20260506004556 59 196 0.9 7.8 0.00 0.00 0.00 44 1013.9
20260506003056 59 219 0.9 3.5 0.00 0.00 0.00 42 1013.9
20260506001555 59 202 2.6 5.2 0.00 0.00 0.00 42 1013.7
20260506000055 60 200 0.0 3.5 0.00 0.00 0.00 43 1013.9
20260505234606 60 160 0.9 2.6 0.00 0.00 0.00 42 1013.8
20260505233054 61 161 0.9 3.5 0.00 0.00 0.00 40 1013.7
20260505231605 62 154 1.7 7.0 0.00 0.00 0.00 40 1013.9
20260505230054 63 177 1.7 7.0 0.00 0.00 0.00 39 1013.9
20260505224552 62 226 1.7 5.2 0.00 0.00 0.00 38 1013.7
20260505223102 63 169 1.7 7.8 0.00 0.00 0.00 39 1014.1
20260505221557 63 179 1.7 4.3 0.00 0.00 0.00 38 1013.8
20260505220052 63 180 2.6 7.8 0.00 0.00 0.00 36 1013.9
20260505214611 64 173 1.7 11.3 0.00 0.00 0.00 35 1013.8
20260505213051 65 170 1.7 5.2 0.00 0.00 0.00 33 1013.8
20260505211547 66 189 1.7 7.8 0.00 0.00 0.00 31 1013.6
20260505210047 66 188 0.9 2.6 0.00 0.00 0.00 30 1013.8
20260505204546 65 176 0.9 6.1 0.00 0.00 0.00 33 1014.1
20260505203043 63 172 0.9 11.3 0.00 0.00 0.00 33 1014.2
20260505201541 63 164 0.9 8.7 0.00 0.00 0.00 34 1014.3
20260505200052 62 187 1.7 4.3 0.00 0.00 0.00 31 1014.4
20260505194541 63 250 0.9 3.5 0.00 0.00 0.00 33 1014.5
20260505193039 63 190 1.7 6.1 0.00 0.00 0.00 33 1015.0
20260505191544 63 211 0.9 6.1 0.00 0.00 0.00 33 1014.9
20260505190040 65 173 1.7 2.6 0.00 0.00 0.00 31 1015.0
20260505184537 65 191 0.9 7.8 0.00 0.00 0.00 33 1015.2
20260505183050 65 176 0.9 6.1 0.00 0.00 0.00 34 1015.3
20260505181535 65 167 1.7 8.7 0.00 0.00 0.00 32 1015.1
20260505180041 65 165 0.9 1.7 0.00 0.00 0.00 32 1015.1
20260505174539 66 207 0.9 4.3 0.00 0.00 0.00 32 1015.6
20260505173032 66 183 0.9 5.2 0.00 0.00 0.00 34 1015.9
20260505171528 65 195 0.9 7.8 0.00 0.00 0.00 34 1016.2
20260505170028 64 233 1.7 4.3 0.00 0.00 0.00 35 1016.1
20260505164523 63 196 0.9 3.5 0.00 0.00 0.00 35 1016.0
20260505163020 62 207 0.9 5.2 0.00 0.00 0.00 37 1016.1
20260505161519 61 191 0.9 3.5 0.00 0.00 0.00 37 1016.2
20260505153015 60 214 0.9 4.3 0.00 0.00 0.00 37 1016.3
20260505151512 60 215 0.0 3.5 0.00 0.00 0.00 38 1016.7
20260505140113 56 195 0.0 2.6 0.00 0.00 0.00 43 1016.5
20260505124551 52 230 2.6 7.0 0.00 0.00 0.00 49 1016.3
20260505123053 52 225 0.0 4.3 0.00 0.00 0.00 50 1016.1
20260505121549 51 181 0.9 2.6 0.00 0.00 0.00 51 1016.1
20260505120052 51 216 0.0 3.5 0.00 0.00 0.00 50 1016.0
20260505114557 51 244 2.6 6.1 0.00 0.00 0.00 49 1015.8
20260505113057 51 234 0.0 1.7 0.00 0.00 0.00 50 1015.6
20260505111546 51 236 0.0 4.3 0.00 0.00 0.00 50 1015.6
20260505101551 51 195 0.0 2.6 0.00 0.00 0.00 49 1015.4
20260505100043 51 200 0.0 2.6 0.00 0.00 0.00 49 1015.6
20260505094542 51 208 0.0 3.5 0.00 0.00 0.00 49 1015.4
20260505093042 52 188 0.0 2.6 0.00 0.00 0.00 49 1015.3
20260505091542 52 185 0.9 2.6 0.00 0.00 0.00 48 1015.3
20260505090040 52 197 0.9 2.6 0.00 0.00 0.00 48 1015.5
20260505084537 52 182 1.7 2.6 0.00 0.00 0.00 48 1015.4
20260505083035 52 188 1.7 3.5 0.00 0.00 0.00 48 1015.4
20260505081535 52 186 2.6 7.0 0.00 0.00 0.00 48 1015.4
20260505080033 52 180 0.9 2.6 0.00 0.00 0.00 49 1015.4